Regional Weather Roundup
Issued by NWS Mobile, AL

Home | Current Version | Previous Version | Text Only | Print | Product List | Glossary On
Versions: 1 2 3 4 5 6 7 8 9 10 11 12 13 14 15 16 17 18 19 20 21 22 23 24 25 26 27 28 29 30 31 32 33 34 35 36 37 38 39 40 41 42 43 44 45 46 47 48 49 50
000
ASUS44 KMOB 020710
RWRMOB
REGIONAL WEATHER ROUNDUP
NATIONAL WEATHER SERVICE MOBILE AL
200 AM CDT TUE SEP 02 2014

NOTE: "FAIR" INDICATES FEW OR NO CLOUDS BELOW 12,000 FEET WITH NO
      SIGNIFICANT WEATHER AND/OR OBSTRUCTIONS TO VISIBILITY.

  * THESE STATIONS ARE PART OF THE UNIVERSITY OF SOUTH ALABAMA
    MESONET AND ARE NOT UNDER NWS OR FAA QUALITY CONTROL.

ALZ061>064-020800-
COASTAL ALABAMA

CITY           SKY/WX    TMP DP  RH WIND       PRES   REMARKS
MOBILE REG APT CLEAR     79  76  90 S8        30.03F
BROOKLEY FIELD PTCLDY    83  77  82 S10       30.03F
USA CAMPUS*      N/A     79  75  89 CALM      30.02F
DOG RIVER*       N/A     82  77  83 SE7       30.02F


CITY           SKY/WX    TMP DP  RH WIND       PRES   REMARKS
MOUNT VERNON*    N/A     72  70  94 CALM      30.03S
SARALAND*      NOT AVBL
BAY MINETTE*   NOT AVBL
LOXLEY*          N/A     73  72  94 S3        30.03F
ROBERTSDALE*     N/A    N/A N/A N/A SE3       30.03F
FAIRHOPE*        N/A     77  75  94 SE3       30.02F
ELBERTA*         N/A     79  66  65 CALM      30.02F
FOLEY*         NOT AVBL
GRAND BAY*       N/A     77  75  94 CALM      30.01S
DAUPHIN ISLND* NOT AVBL
BON SCOUR NWR* NOT AVBL
GULF SHORES    PTCLDY    82  76  81 S8        30.02F

$$

ALZ051>060-020800-
INTERIOR SOUTHWEST AND SOUTH CENTRAL ALABAMA

CITY           SKY/WX    TMP DP  RH WIND       PRES   REMARKS
GREENVILLE     CLEAR     74  71  91 CALM      30.06S
EVERGREEN      CLEAR     75  73  93 CALM      30.06S
CASTLEBERRY*   NOT AVBL
ATMORE*          N/A     75  75 100 CALM      30.05F
DIXIE*         NOT AVBL
ANDALUSIA/OPP  CLEAR     77  72  84 CALM      30.05F
ANDALUSIA*     NOT AVBL
FLORALA APT    CLEAR     75  72  90 CALM      30.07F
FLORALA*         N/A     72  72 100 CALM      30.03F

$$

FLZ001>006-020800-
WESTERN FLORIDA PANHANDLE

CITY           SKY/WX    TMP DP  RH WIND       PRES   REMARKS
PENSACOLA      PTCLDY    80  75  84 S9        30.03F
NAS PENSACOLA  PTCLDY    83  75  77 S12       30.02F
MILTON         PTCLDY    76  73  91 CALM      30.04F
WHTNG S FIELD  PTCLDY    78  74  87 CALM      30.04F


CITY           SKY/WX    TMP DP  RH WIND       PRES   REMARKS
WALNUT HILL*   NOT AVBL
JAY*           NOT AVBL
DUKE FIELD     CLEAR     74  74  99 N1        30.04F
CRESTVIEW      CLEAR     73  71  93 CALM      30.06F
VALPARAISO     PTCLDY    82  76  79 CALM      30.04S
DESTIN         CLEAR     85  76  74 VRB5      30.03F

$$

MSZ076-079-020800-
INTERIOR SOUTHEAST MISSISSIPPI

CITY           SKY/WX    TMP DP  RH WIND       PRES   REMARKS
LEAKESVILLE*     N/A     75  73  94 CALM        N/A
AGRICOLA*      NOT AVBL

$$

MARINE OBSERVATIONS

STATION/POSITION TIME  TEMP    WIND        PRES    WAVE
                       AIR SEA DIR/SP/G            HT/PER
                 (UTC) (F)     (DEG/KT/KT) (MB)    (FT/S)
PASCAGOULA       0700   84     170/ 12/ 14 1016.3R
PETIT BOIS ISLND 0700   84     170/ 14/ 16 1016.6F
GRAND BAY        0600   84     180/ 11     1018.0S
KATRINA CUT      0600   84     180/ 13     1017.3F
CEDAR POINT      0500   83     160/ 10     1017.3F
E DAUPHIN ISLAND 0700   84     160/ 13/ 13 1016.4F
MIDDLE BAY LIGHT 0600   84     160/ 15     1016.3F
USCG MOBILE BAY  0700   84 88  170/  8/ 12 1015.5F
STATE DOCKS      0700   84 87              1016.3F
MEAHER PARK      0600   81     130/  8     1016.3F
WEEKS BAY        0600   77                   N/A
FORT MORGAN      0700   84     180/ 12/ 14 1016.0F
12 S ORANGE BCH  0700   84 86  170/ 12/ 14 1016.7F   3/ 6
PENSACOLA BAY    0700   85 87  180/  5/ 12 1017.0F
64 S DAUPHIN ISL 0621   83 85  160/ 10/ 10 1016.8F
67 S FORT MORGAN 0600   82                 1016.6F

$$

SELECTED LOCATIONS ACROSS THE REGION

CITY           SKY/WX    TMP DP  RH WIND       PRES   REMARKS
NEW ORLEANS    PTCLDY    80  75  84 S6        30.00F
GULFPORT       PTCLDY    82  75  79 S7        30.01F
PASCAGOULA AP  PTCLDY    76  75  97 CALM      30.02F
PASCAGOULA*      N/A     82  77  83 CALM      30.01F
HATTIESBURG    CLEAR     78  74  87 CALM      30.04S
LAUREL         CLEAR     75  72  88 CALM      30.05S
MERIDIAN       CLEAR     74  72  93 CALM      30.04S
JACKSON        PTCLDY    76  73  91 S5        30.02F
MONTGOMERY     CLEAR     77  71  82 CALM      30.05F
TROY           CLEAR     75  71  87 CALM      30.07F
KINSTON*       NOT AVBL
GENEVA*          N/A     73  72  94 CALM      30.07F
ASHFORD*       NOT AVBL
DOTHAN         CLEAR     75  71  87 S3        30.09F
PANAMA CITY    CLEAR     76  73  91 CALM      30.04F

$$




USA.gov is the U.S. government's official web portal to all federal, state and local government web resources and services.